{"data":{"norad_id":57869,"epoch":"2026-05-25T05:12:41.773824Z","epoch_age_seconds":53501,"freshness":"FRESH","line1":"1 57869U 23144F   26145.21715016  .00000667  00000+0  33780-4 0  9993","line2":"2 57869  43.0015 212.7754 0001438 281.6203  78.4487 15.27572722149301","mean_motion":15.27572722,"eccentricity":0.0001438,"inclination_deg":43.0015,"raan_deg":212.7754,"arg_perigee_deg":281.6203,"mean_anomaly_deg":78.4487,"bstar":3.378e-5,"rev_number":14930,"period_min":94.267197840156,"perigee_km":482.08424738198,"apogee_km":484.05753077088,"semimajor_km":6861.2078890764,"source":"CELESTRAK","updated_at":"2026-05-25T13:38:18.446730Z"}}